Regional Weather Roundup
Issued by NWS

Home | Current Version | Previous Version | Graphics & Text | Print | Product List | Glossary On
Versions: 1 2 3 4 5 6 7 8 9 10 11 12 13 14 15 16 17 18 19 20 21 22 23 24 25 26 27 28 29 30 31 32 33 34 35 36 37 38 39 40 41 42 43 44 45 46 47 48 49 50
687
ASUS45 KABQ 031501
RWRNM
NEW MEXICO REGIONAL WEATHER ROUNDUP
NATIONAL WEATHER SERVICE ALBUQUERQUE NM
900 AM MDT TUE MAY 03 2016

NOTE: "FAIR" MEANS FEW OR NO CLOUDS BELOW 12,000 FEET AGL WITH NO
       SIGNIFICANT WEATHER OR OBSTRUCTIONS TO VISION.

      THIS PRODUCT IS RELEASED AS TWO VERSIONS.  ONE VERSION NEAR
      THE TOP OF THE HOUR CONTAINING PRELIMINARY DATA FROM ALBUQUERQUE
      AND OTHER STATIONS.  A FINAL VERSION WITH ADDITIONAL DATA IS
      ISSUED ABOUT 10 MINUTES AFTER THE HOUR.

NMZ501-503-504-510>518-031600-
NORTHWEST PLATEAU/NORTHCENTRAL MOUNTAINS

CITY           SKY/WX    TMP DP  RH WIND       PRES   REMARKS
FARMINGTON     FAIR      47  37  68 E6        30.23R
SANTA FE       FAIR      52  36  54 N14       30.21S
TAOS           FAIR      45  34  65 N5        30.26R

$$
NMZ402-403-502-505>509-031600-
WESTCENTRAL MOUNTAINS/SOUTHWEST MOUNTAINS

CITY           SKY/WX    TMP DP  RH WIND       PRES   REMARKS
GALLUP         FAIR      49  38  65 NE3       30.26R
GRANTS         FAIR      46  40  81 N5        30.27S
SILVER CITY      N/A     61  28  29 E8        30.19R

$$
NMZ407-409-411-412-031600-
SOUTHERN DESERTS

CITY           SKY/WX    TMP DP  RH WIND       PRES   REMARKS
LORDSBURG      FAIR      64  32  29 E20       30.11S
DEMING         FAIR      62  36  37 NE16      30.14R
ALAMOGORDO     FAIR      61  28  29 NW8       30.17S
T OR C         PTSUNNY   60  35  39 NE6       30.17S

$$
NMZ519>523-031600-
CENTRAL VALLEYS/CENTRAL HIGHLANDS

CITY           SKY/WX    TMP DP  RH WIND       PRES   REMARKS
ALBUQUERQUE    FAIR      54  37  52 VRB7      30.21S
DOUBLE EAGLE   MOSUNNY   52  37  58 SW5       30.23R
CLINES CORNERS FAIR      52  31  44 NW14      30.20R
BELEN          FAIR      54  42  63 NE5       30.22R
SOCORRO        NOT AVBL

$$
NMZ524>526-539-540-031600-
SOUTHCENTRAL MOUNTAINS

CITY           SKY/WX    TMP DP  RH WIND       PRES   REMARKS
RUIDOSO        NOT AVBL

$$
NMZ527>531-031600-
NORTHEAST HIGHLANDS/NORTHEAST PLAINS

CITY           SKY/WX    TMP DP  RH WIND       PRES   REMARKS
LAS VEGAS      FAIR      52  31  44 NE12      30.21R
RATON          FAIR      50  30  46 N17G26    30.22R
CLAYTON        FAIR      56  34  43 N14       30.17R

$$
NMZ532>537-031600-
EASTCENTRAL PLAINS

CITY           SKY/WX    TMP DP  RH WIND       PRES   REMARKS
TUCUMCARI      FAIR      58  39  49 N9        30.13R
CANNON AFB     NOT AVBL
CLOVIS AIRPORT FAIR      55  37  50 SW12      30.14S

$$
NMZ028-029-538-031600-
SOUTHEAST PLAINS

CITY           SKY/WX    TMP DP  RH WIND       PRES   REMARKS
ROSWELL        FAIR      57  34  41 CALM      30.13S
CARLSBAD       FAIR      58  36  43 SE3       30.12S
HOBBS          SUNNY     61  41  48 S15       30.15S


$$




USA.gov is the U.S. government's official web portal to all federal, state and local government web resources and services.